Location: Days
(41.3591°N, 106.7339°W)
Time: 01:54:26
(UTC+00:00)

UWE-3 - Pass Details

Date: 09 July 2022
Orbit: 583 x 677 km, 97.7° (Epoch: 09 August)

Event Time Altitude Azimuth Distance (km) Brightness Sun altitude
Rises 09:50:54 0° 22° (NNE) 2,946 ? -16.5°
Reaches altitude 10° 09:53:17 10° 33° (NNE) 2,048 ? -16.2°
Maximum altitude 09:57:18 32° 96° (E) 1,123 ? -15.7°
Drops below altitude 10° 10:01:23 10° 160° (SSE) 2,079 ? -15.2°
Enters shadow 10:02:04 - 164° (SSE) 2,332 ? -15.1°
